Location: ????????
(60.4333°N, 46.4710°E)
Time: 04:42:56
(UTC+00:00)

Cosmos 1633 Rocket - Pass Details

Date: 25 November 2020
Orbit: 607 x 624 km, 82.5° (Epoch: 19 January)

Event Time Altitude Azimuth Distance (km) Brightness Sun altitude
Rises 13:06:17 0° 348° (NNW) 2,915 6.3 -7.2°
Reaches altitude 10° 13:08:57 10° 3° (N) 2,002 5.4 -7.4°
Maximum altitude 13:12:27 22° 56° (NE) 1,353 4.2 -7.8°
Drops below altitude 10° 13:15:55 10° 108° (ESE) 1,983 5.3 -8.2°
Sets 13:18:33 0° 123° (ESE) 2,881 6.2 -8.5°
